Tracking 20092 objects as of 14-Dec-2019
HD Live streaming from Space Station
objects crossing your sky now

FENGYUN 1C DEB

Track FENGYUN 1C DEB now!
10-day predictions


NORAD ID: 29895
Int'l Code: 1999-025GR
Perigee: 674.0 km
Apogee: 1,217.0 km
Inclination: 99.8 °
Period: 103.8 minutes
Semi major axis: 7316 km
RCS: 0.0261 m2 (small)
Launch date: May 10, 1999
Source: People's Republic of China (PRC)
Launch site: Taiyaun Space Center, China (TSC)

Note: This is SATELLITE DEBRIS
aabbcc
Your satellite tracking list
Your tracking list is empty




NASA's NSSDC Master Catalog

Two Line Element Set (TLE):
1 29895U 99025GR  19346.99824397  .00000878  00000-0  45761-3 0  9991
2 29895  99.8493 264.0851 0371062  55.2474   4.2775 13.87224400650129
Source of the keplerian elements: AFSPC